Overview Statistics Trail Chart Weather Telemetry Raw packets
 

This is the latest recevied weather packets stored in our database for station/object DF7ER-12. If no packets are shown the sender has not sent any weather packets the latest 10 day(s).

<< 38 39 40 41 42 43 44 >>
Time Temp. Humidity Pressure Rain* Wind** Luminosity Snow
1788411773 19.44° C 84% 1006.1 hPa - - - -
1788411473 19.44° C 83% 1006.1 hPa - - - -
1788411173 19.44° C 84% 1006.1 hPa - - - -
1788410887 19.44° C 85% 1006.1 hPa - - - -
1788410573 19.44° C 86% 1006.1 hPa - - - -
1788410273 19.44° C 85% 1006 hPa - - - -
1788409973 19.44° C 86% 1006.3 hPa - - - -
1788409673 19.44° C 86% 1006.3 hPa - - - -
1788409373 19.44° C 86% 1006.4 hPa - - - -
1788409073 19.44° C 84% 1006.4 hPa - - - -
1788408773 19.44° C 84% 1006.4 hPa - - - -
1788408473 19.44° C 84% 1006.6 hPa - - - -
1788408173 20° C 83% 1006.6 hPa - - - -
1788407873 20° C 82% 1006.6 hPa - - - -
1788407573 20° C 83% 1006.5 hPa - - - -
1788406882 19.44° C 82% 1006.5 hPa - - - -
1788406582 19.44° C 83% 1006.5 hPa - - - -
1788406282 19.44° C 83% 1006.6 hPa - - - -
1788405982 19.44° C 83% 1006.6 hPa - - - -
1788405682 19.44° C 85% 1006.6 hPa - - - -
1788405382 19.44° C 86% 1006.7 hPa - - - -
1788405082 19.44° C 86% 1006.7 hPa - - - -
1788404782 20° C 86% 1006.9 hPa - - - -
1788403360 20.56° C 81% 1006.9 hPa - - - -
1788403060 20.56° C 80% 1006.9 hPa - - - -

* Rain since midnight (hover to see other rain measurements)
** Current wind speed in m/s (hover to see current wind gust speed)